Time,TemperatureF,DewpointF,PressureIn,WindDirection,WindDirectionDegrees,WindSpeedMPH,WindSpeedGustMPH,Humidity,HourlyPrecipIn,Conditions,Clouds,dailyrainin,SoftwareType,DateUTC
2013-03-29 00:00:00,35.7,31.9,30.26,NW,315,0.0,0.0,86,0.00,,---,0.00,VWS V14.01,2013-03-29 04:00:00,
2013-03-29 00:01:00,52.5,50.2,30.04,East,96,2.0,11.0,92,0.01,,---,0.01,VWS V14.01,2013-03-29 04:01:00,
2013-03-29 00:02:00,52.5,50.2,30.04,East,96,2.0,11.0,92,0.01,,---,0.01,VWS V14.01,2013-03-29 04:02:00,
2013-03-29 00:07:00,52.5,50.2,30.04,East,96,2.0,11.0,92,0.01,,---,0.01,VWS V14.01,2013-03-29 04:07:00,
2013-03-29 00:12:00,52.5,50.2,30.04,East,96,2.0,11.0,92,0.01,,---,0.01,VWS V14.01,2013-03-29 04:12:00,
2013-03-29 00:17:00,52.5,50.2,30.04,East,96,2.0,11.0,92,0.01,,---,0.01,VWS V14.01,2013-03-29 04:17:00,
2013-03-29 00:22:00,52.5,50.2,30.04,East,96,2.0,11.0,92,0.01,,---,0.01,VWS V14.01,2013-03-29 04:22:00,
2013-03-29 00:27:00,52.5,50.2,30.04,East,96,2.0,11.0,92,0.01,,---,0.01,VWS V14.01,2013-03-29 04:27:00,
2013-03-29 00:32:00,52.5,50.2,30.04,East,96,2.0,11.0,92,0.01,,---,0.01,VWS V14.01,2013-03-29 04:32:00,
2013-03-29 00:37:00,52.5,50.2,30.04,East,96,2.0,11.0,92,0.01,,---,0.01,VWS V14.01,2013-03-29 04:37:00,
2013-03-29 00:42:00,52.5,50.2,30.04,East,96,2.0,11.0,92,0.01,,---,0.01,VWS V14.01,2013-03-29 04:42:00,
2013-03-29 00:48:00,52.5,50.2,30.04,East,96,2.0,11.0,92,0.01,,---,0.01,VWS V14.01,2013-03-29 04:48:00,
2013-03-29 00:53:00,52.5,50.2,30.04,East,96,2.0,11.0,92,0.01,,---,0.01,VWS V14.01,2013-03-29 04:53:00,
2013-03-29 00:58:00,52.5,50.2,30.04,East,96,2.0,11.0,92,0.01,,---,0.01,VWS V14.01,2013-03-29 04:58:00,
2013-03-29 01:00:00,35.5,32.9,30.26,NW,315,0.0,0.0,90,0.00,,---,0.00,VWS V14.01,2013-03-29 05:00:00,
2013-03-29 01:03:00,52.5,50.2,30.04,East,96,2.0,11.0,92,0.01,,---,0.01,VWS V14.01,2013-03-29 05:03:00,
2013-03-29 01:08:00,52.5,50.2,30.04,East,96,2.0,11.0,92,0.01,,---,0.01,VWS V14.01,2013-03-29 05:08:00,
2013-03-29 01:13:00,52.5,50.2,30.04,East,96,2.0,11.0,92,0.01,,---,0.01,VWS V14.01,2013-03-29 05:13:00,
2013-03-29 01:18:00,52.5,50.2,30.04,East,96,2.0,11.0,92,0.01,,---,0.01,VWS V14.01,2013-03-29 05:18:00,
2013-03-29 01:23:00,52.5,50.2,30.04,East,96,2.0,11.0,92,0.01,,---,0.01,VWS V14.01,2013-03-29 05:23:00,
2013-03-29 01:28:00,52.5,50.2,30.04,East,96,2.0,11.0,92,0.01,,---,0.01,VWS V14.01,2013-03-29 05:28:00,
2013-03-29 01:33:00,52.5,50.2,30.04,East,96,2.0,11.0,92,0.01,,---,0.01,VWS V14.01,2013-03-29 05:33:00,
2013-03-29 01:38:00,52.5,50.2,30.04,East,96,2.0,11.0,92,0.01,,---,0.01,VWS V14.01,2013-03-29 05:38:00,
2013-03-29 01:43:00,52.5,50.2,30.04,East,96,2.0,11.0,92,0.01,,---,0.01,VWS V14.01,2013-03-29 05:43:00,
2013-03-29 01:48:00,52.5,50.2,30.04,East,96,2.0,11.0,92,0.01,,---,0.01,VWS V14.01,2013-03-29 05:48:00,
2013-03-29 01:53:00,52.5,50.2,30.04,East,96,2.0,11.0,92,0.01,,---,0.01,VWS V14.01,2013-03-29 05:53:00,
2013-03-29 01:58:00,52.5,50.2,30.04,East,96,2.0,11.0,92,0.01,,---,0.01,VWS V14.01,2013-03-29 05:58:00,
2013-03-29 02:00:00,34.2,31.6,30.26,NW,315,0.0,0.0,90,0.00,,---,0.00,VWS V14.01,2013-03-29 06:00:00,
2013-03-29 02:03:00,52.5,50.2,30.04,East,96,2.0,11.0,92,0.01,,---,0.01,VWS V14.01,2013-03-29 06:03:00,
2013-03-29 02:08:00,52.5,50.2,30.04,East,96,2.0,11.0,92,0.01,,---,0.01,VWS V14.01,2013-03-29 06:08:00,
2013-03-29 02:13:00,52.5,50.2,30.04,East,96,2.0,11.0,92,0.01,,---,0.01,VWS V14.01,2013-03-29 06:13:00,
2013-03-29 02:18:00,52.5,50.2,30.04,East,96,2.0,11.0,92,0.01,,---,0.01,VWS V14.01,2013-03-29 06:18:00,
2013-03-29 02:23:00,52.5,50.2,30.04,East,96,2.0,11.0,92,0.01,,---,0.01,VWS V14.01,2013-03-29 06:23:00,
2013-03-29 02:28:00,52.5,50.2,30.04,East,96,2.0,11.0,92,0.01,,---,0.01,VWS V14.01,2013-03-29 06:28:00,
2013-03-29 02:33:00,52.5,50.2,30.04,East,96,2.0,11.0,92,0.01,,---,0.01,VWS V14.01,2013-03-29 06:33:00,
2013-03-29 02:38:00,52.5,50.2,30.04,East,96,2.0,11.0,92,0.01,,---,0.01,VWS V14.01,2013-03-29 06:38:00,
2013-03-29 02:43:00,52.5,50.2,30.04,East,96,2.0,11.0,92,0.01,,---,0.01,VWS V14.01,2013-03-29 06:43:00,
2013-03-29 02:48:00,52.5,50.2,30.04,East,96,2.0,11.0,92,0.01,,---,0.01,VWS V14.01,2013-03-29 06:48:00,
2013-03-29 02:53:00,52.5,50.2,30.04,East,96,2.0,11.0,92,0.01,,---,0.01,VWS V14.01,2013-03-29 06:53:00,
2013-03-29 02:58:00,52.5,50.2,30.04,East,96,2.0,11.0,92,0.01,,---,0.01,VWS V14.01,2013-03-29 06:58:00,
2013-03-29 03:00:00,35.2,32.3,30.27,NW,315,0.0,0.0,89,0.00,,---,0.00,VWS V14.01,2013-03-29 07:00:00,
2013-03-29 03:03:00,52.5,50.2,30.04,East,96,2.0,11.0,92,0.01,,---,0.01,VWS V14.01,2013-03-29 07:03:00,
2013-03-29 03:08:00,52.5,50.2,30.04,East,96,2.0,11.0,92,0.01,,---,0.01,VWS V14.01,2013-03-29 07:08:00,
2013-03-29 03:13:00,52.5,50.2,30.04,East,96,2.0,11.0,92,0.01,,---,0.01,VWS V14.01,2013-03-29 07:13:00,
2013-03-29 03:18:00,52.5,50.2,30.04,East,96,2.0,11.0,92,0.01,,---,0.01,VWS V14.01,2013-03-29 07:18:00,
2013-03-29 03:23:00,52.5,50.2,30.04,East,96,2.0,11.0,92,0.01,,---,0.01,VWS V14.01,2013-03-29 07:23:00,
2013-03-29 03:28:00,52.5,50.2,30.04,East,96,2.0,11.0,92,0.01,,---,0.01,VWS V14.01,2013-03-29 07:28:00,
2013-03-29 03:33:00,52.5,50.2,30.04,East,96,2.0,11.0,92,0.01,,---,0.01,VWS V14.01,2013-03-29 07:33:00,
2013-03-29 03:38:00,52.5,50.2,30.04,East,96,2.0,11.0,92,0.01,,---,0.01,VWS V14.01,2013-03-29 07:38:00,
2013-03-29 03:43:00,52.5,50.2,30.04,East,96,2.0,11.0,92,0.01,,---,0.01,VWS V14.01,2013-03-29 07:43:00,
2013-03-29 03:48:00,52.5,50.2,30.04,East,96,2.0,11.0,92,0.01,,---,0.01,VWS V14.01,2013-03-29 07:48:00,
2013-03-29 03:53:00,52.5,50.2,30.04,East,96,2.0,11.0,92,0.01,,---,0.01,VWS V14.01,2013-03-29 07:53:00,
2013-03-29 03:58:00,52.5,50.2,30.04,East,96,2.0,11.0,92,0.01,,---,0.01,VWS V14.01,2013-03-29 07:58:00,
2013-03-29 04:00:00,34.6,31.1,30.27,NW,315,0.0,1.0,87,0.00,,---,0.00,VWS V14.01,2013-03-29 08:00:00,
2013-03-29 04:03:00,52.5,50.2,30.04,East,96,2.0,11.0,92,0.01,,---,0.01,VWS V14.01,2013-03-29 08:03:00,
2013-03-29 04:08:00,52.5,50.2,30.04,East,96,2.0,11.0,92,0.01,,---,0.01,VWS V14.01,2013-03-29 08:08:00,
2013-03-29 04:13:00,52.5,50.2,30.04,East,96,2.0,11.0,92,0.01,,---,0.01,VWS V14.01,2013-03-29 08:13:00,
2013-03-29 04:18:00,52.5,50.2,30.04,East,96,2.0,11.0,92,0.01,,---,0.01,VWS V14.01,2013-03-29 08:18:00,
2013-03-29 04:23:00,52.5,50.2,30.04,East,96,2.0,11.0,92,0.01,,---,0.01,VWS V14.01,2013-03-29 08:23:00,
2013-03-29 04:28:00,52.5,50.2,30.04,East,96,2.0,11.0,92,0.01,,---,0.01,VWS V14.01,2013-03-29 08:28:00,
2013-03-29 04:33:00,52.5,50.2,30.04,East,96,2.0,11.0,92,0.01,,---,0.01,VWS V14.01,2013-03-29 08:33:00,
2013-03-29 04:38:00,52.5,50.2,30.04,East,96,2.0,11.0,92,0.01,,---,0.01,VWS V14.01,2013-03-29 08:38:00,
2013-03-29 04:43:00,52.5,50.2,30.04,East,96,2.0,11.0,92,0.01,,---,0.01,VWS V14.01,2013-03-29 08:43:00,
2013-03-29 04:48:00,52.5,50.2,30.04,East,96,2.0,11.0,92,0.01,,---,0.01,VWS V14.01,2013-03-29 08:48:00,
2013-03-29 04:53:00,52.5,50.2,30.04,East,96,2.0,11.0,92,0.01,,---,0.01,VWS V14.01,2013-03-29 08:53:00,
2013-03-29 04:58:00,52.5,50.2,30.04,East,96,2.0,11.0,92,0.01,,---,0.01,VWS V14.01,2013-03-29 08:58:00,
2013-03-29 05:00:00,33.7,30.2,30.28,NW,315,0.0,0.0,87,0.00,,---,0.00,VWS V14.01,2013-03-29 09:00:00,
2013-03-29 05:03:00,52.5,50.2,30.04,East,96,2.0,11.0,92,0.01,,---,0.01,VWS V14.01,2013-03-29 09:03:00,
2013-03-29 05:08:00,52.5,50.2,30.04,East,96,2.0,11.0,92,0.01,,---,0.01,VWS V14.01,2013-03-29 09:08:00,
2013-03-29 05:13:00,52.5,50.2,30.04,East,96,2.0,11.0,92,0.01,,---,0.01,VWS V14.01,2013-03-29 09:13:00,
2013-03-29 05:18:00,52.5,50.2,30.04,East,96,2.0,11.0,92,0.01,,---,0.01,VWS V14.01,2013-03-29 09:18:00,
2013-03-29 05:23:00,52.5,50.2,30.04,East,96,2.0,11.0,92,0.01,,---,0.01,VWS V14.01,2013-03-29 09:23:00,
2013-03-29 05:28:00,52.5,50.2,30.04,East,96,2.0,11.0,92,0.01,,---,0.01,VWS V14.01,2013-03-29 09:28:00,
2013-03-29 05:33:00,52.5,50.2,30.04,East,96,2.0,11.0,92,0.01,,---,0.01,VWS V14.01,2013-03-29 09:33:00,
2013-03-29 05:38:00,52.5,50.2,30.04,East,96,2.0,11.0,92,0.01,,---,0.01,VWS V14.01,2013-03-29 09:38:00,
2013-03-29 05:43:00,52.5,50.2,30.04,East,96,2.0,11.0,92,0.01,,---,0.01,VWS V14.01,2013-03-29 09:43:00,
2013-03-29 05:48:00,52.5,50.2,30.04,East,96,2.0,11.0,92,0.01,,---,0.01,VWS V14.01,2013-03-29 09:48:00,
2013-03-29 05:53:00,52.5,50.2,30.04,East,96,2.0,11.0,92,0.01,,---,0.01,VWS V14.01,2013-03-29 09:53:00,
2013-03-29 05:58:00,52.5,50.2,30.04,East,96,2.0,11.0,92,0.01,,---,0.01,VWS V14.01,2013-03-29 09:58:00,
2013-03-29 06:00:00,31.7,28.8,30.30,NW,315,0.0,0.0,89,0.00,,---,0.00,VWS V14.01,2013-03-29 10:00:00,
2013-03-29 06:03:00,52.5,50.2,30.04,East,96,2.0,11.0,92,0.01,,---,0.01,VWS V14.01,2013-03-29 10:03:00,
2013-03-29 06:08:00,52.5,50.2,30.04,East,96,2.0,11.0,92,0.01,,---,0.01,VWS V14.01,2013-03-29 10:08:00,
2013-03-29 06:13:00,52.5,50.2,30.04,East,96,2.0,11.0,92,0.01,,---,0.01,VWS V14.01,2013-03-29 10:13:00,
2013-03-29 06:18:00,52.5,50.2,30.04,East,96,2.0,11.0,92,0.01,,---,0.01,VWS V14.01,2013-03-29 10:18:00,
2013-03-29 06:23:00,52.5,50.2,30.04,East,96,2.0,11.0,92,0.01,,---,0.01,VWS V14.01,2013-03-29 10:23:00,
2013-03-29 06:28:00,52.5,50.2,30.04,East,96,2.0,11.0,92,0.01,,---,0.01,VWS V14.01,2013-03-29 10:28:00,
2013-03-29 06:33:00,52.5,50.2,30.04,East,96,2.0,11.0,92,0.01,,---,0.01,VWS V14.01,2013-03-29 10:33:00,
2013-03-29 06:38:00,52.5,50.2,30.04,East,96,2.0,11.0,92,0.01,,---,0.01,VWS V14.01,2013-03-29 10:38:00,
2013-03-29 06:43:00,52.5,50.2,30.04,East,96,2.0,11.0,92,0.01,,---,0.01,VWS V14.01,2013-03-29 10:43:00,
2013-03-29 06:48:00,52.5,50.2,30.04,East,96,2.0,11.0,92,0.01,,---,0.01,VWS V14.01,2013-03-29 10:48:00,
2013-03-29 06:53:00,52.5,50.2,30.04,East,96,2.0,11.0,92,0.01,,---,0.01,VWS V14.01,2013-03-29 10:53:00,
2013-03-29 06:58:00,52.5,50.2,30.04,East,96,2.0,11.0,92,0.01,,---,0.01,VWS V14.01,2013-03-29 10:58:00,
2013-03-29 07:00:00,34.7,32.3,30.31,NW,315,0.0,0.0,91,0.00,,---,0.00,VWS V14.01,2013-03-29 11:00:00,
2013-03-29 07:03:00,52.5,50.2,30.04,East,96,2.0,11.0,92,0.01,,---,0.01,VWS V14.01,2013-03-29 11:03:00,
2013-03-29 07:08:00,52.5,50.2,30.04,East,96,2.0,11.0,92,0.01,,---,0.01,VWS V14.01,2013-03-29 11:08:00,
2013-03-29 07:13:00,52.5,50.2,30.04,East,96,2.0,11.0,92,0.01,,---,0.01,VWS V14.01,2013-03-29 11:13:00,
2013-03-29 07:18:00,52.5,50.2,30.04,East,96,2.0,11.0,92,0.01,,---,0.01,VWS V14.01,2013-03-29 11:18:00,
2013-03-29 07:23:00,52.5,50.2,30.04,East,96,2.0,11.0,92,0.01,,---,0.01,VWS V14.01,2013-03-29 11:23:00,
2013-03-29 07:28:00,52.5,50.2,30.04,East,96,2.0,11.0,92,0.01,,---,0.01,VWS V14.01,2013-03-29 11:28:00,
2013-03-29 07:33:00,52.5,50.2,30.04,East,96,2.0,11.0,92,0.01,,---,0.01,VWS V14.01,2013-03-29 11:33:00,
2013-03-29 07:38:00,52.5,50.2,30.04,East,96,2.0,11.0,92,0.01,,---,0.01,VWS V14.01,2013-03-29 11:38:00,
2013-03-29 07:43:00,52.5,50.2,30.04,East,96,2.0,11.0,92,0.01,,---,0.01,VWS V14.01,2013-03-29 11:43:00,
2013-03-29 07:48:00,52.5,50.2,30.04,East,96,2.0,11.0,92,0.01,,---,0.01,VWS V14.01,2013-03-29 11:48:00,
2013-03-29 07:53:00,52.5,50.2,30.04,East,96,2.0,11.0,92,0.01,,---,0.01,VWS V14.01,2013-03-29 11:53:00,
2013-03-29 07:58:00,52.5,50.2,30.04,East,96,2.0,11.0,92,0.01,,---,0.01,VWS V14.01,2013-03-29 11:58:00,
2013-03-29 08:00:00,45.3,34.6,30.32,North,0,0.0,5.0,66,0.00,,---,0.00,VWS V14.01,2013-03-29 12:00:00,
2013-03-29 08:03:00,52.5,50.2,30.04,East,96,2.0,11.0,92,0.01,,---,0.01,VWS V14.01,2013-03-29 12:03:00,
2013-03-29 08:08:00,52.5,50.2,30.04,East,96,2.0,11.0,92,0.01,,---,0.01,VWS V14.01,2013-03-29 12:08:00,
2013-03-29 08:13:00,52.5,50.2,30.04,East,96,2.0,11.0,92,0.01,,---,0.01,VWS V14.01,2013-03-29 12:13:00,
2013-03-29 08:18:00,52.5,50.2,30.04,East,96,2.0,11.0,92,0.01,,---,0.01,VWS V14.01,2013-03-29 12:18:00,
2013-03-29 08:23:00,52.5,50.2,30.04,East,96,2.0,11.0,92,0.01,,---,0.01,VWS V14.01,2013-03-29 12:23:00,
2013-03-29 08:28:00,52.5,50.2,30.04,East,96,2.0,11.0,92,0.01,,---,0.01,VWS V14.01,2013-03-29 12:28:00,
2013-03-29 08:33:00,52.5,50.2,30.04,East,96,2.0,11.0,92,0.01,,---,0.01,VWS V14.01,2013-03-29 12:33:00,
2013-03-29 08:38:00,52.5,50.2,30.04,East,96,2.0,11.0,92,0.01,,---,0.01,VWS V14.01,2013-03-29 12:38:00,
2013-03-29 08:43:00,52.5,50.2,30.04,East,96,2.0,11.0,92,0.01,,---,0.01,VWS V14.01,2013-03-29 12:43:00,
2013-03-29 08:48:00,52.5,50.2,30.04,East,96,2.0,11.0,92,0.01,,---,0.01,VWS V14.01,2013-03-29 12:48:00,
2013-03-29 08:53:00,52.5,50.2,30.04,East,96,2.0,11.0,92,0.01,,---,0.01,VWS V14.01,2013-03-29 12:53:00,
2013-03-29 08:58:00,52.5,50.2,30.04,East,96,2.0,11.0,92,0.01,,---,0.01,VWS V14.01,2013-03-29 12:58:00,
2013-03-29 09:00:00,52.5,31.2,30.33,North,0,1.0,7.0,44,0.00,,---,0.00,VWS V14.01,2013-03-29 13:00:00,
2013-03-29 09:03:00,52.5,50.2,30.04,East,96,2.0,11.0,92,0.01,,---,0.01,VWS V14.01,2013-03-29 13:03:00,
2013-03-29 09:08:00,52.5,50.2,30.04,East,96,2.0,11.0,92,0.01,,---,0.01,VWS V14.01,2013-03-29 13:08:00,
2013-03-29 09:13:00,52.5,50.2,30.04,East,96,2.0,11.0,92,0.01,,---,0.01,VWS V14.01,2013-03-29 13:13:00,
2013-03-29 09:18:00,52.5,50.2,30.04,East,96,2.0,11.0,92,0.01,,---,0.01,VWS V14.01,2013-03-29 13:18:00,
2013-03-29 09:23:00,52.5,50.2,30.04,East,96,2.0,11.0,92,0.01,,---,0.01,VWS V14.01,2013-03-29 13:23:00,
2013-03-29 09:28:00,52.5,50.2,30.04,East,96,2.0,11.0,92,0.01,,---,0.01,VWS V14.01,2013-03-29 13:28:00,
2013-03-29 09:33:00,52.5,50.2,30.04,East,96,2.0,11.0,92,0.01,,---,0.01,VWS V14.01,2013-03-29 13:33:00,
2013-03-29 09:38:00,52.5,50.2,30.04,East,96,2.0,11.0,92,0.01,,---,0.01,VWS V14.01,2013-03-29 13:38:00,
2013-03-29 09:43:00,52.5,50.2,30.04,East,96,2.0,11.0,92,0.01,,---,0.01,VWS V14.01,2013-03-29 13:43:00,
2013-03-29 09:48:00,52.5,50.2,30.04,East,96,2.0,11.0,92,0.01,,---,0.01,VWS V14.01,2013-03-29 13:48:00,
2013-03-29 09:53:00,52.5,50.2,30.04,East,96,2.0,11.0,92,0.01,,---,0.01,VWS V14.01,2013-03-29 13:53:00,
2013-03-29 09:58:00,52.5,50.2,30.04,East,96,2.0,11.0,92,0.01,,---,0.01,VWS V14.01,2013-03-29 13:58:00,
2013-03-29 10:00:00,54.3,29.2,30.32,North,0,3.0,9.0,38,0.00,,---,0.00,VWS V14.01,2013-03-29 14:00:00,
2013-03-29 10:03:00,52.5,50.2,30.04,East,96,2.0,11.0,92,0.01,,---,0.01,VWS V14.01,2013-03-29 14:03:00,
2013-03-29 10:08:00,52.5,50.2,30.04,East,96,2.0,11.0,92,0.01,,---,0.01,VWS V14.01,2013-03-29 14:08:00,
2013-03-29 10:13:00,52.5,50.2,30.04,East,96,2.0,11.0,92,0.01,,---,0.01,VWS V14.01,2013-03-29 14:13:00,
2013-03-29 10:18:00,52.5,50.2,30.04,East,96,2.0,11.0,92,0.01,,---,0.01,VWS V14.01,2013-03-29 14:18:00,
2013-03-29 10:23:00,52.5,50.2,30.04,East,96,2.0,11.0,92,0.01,,---,0.01,VWS V14.01,2013-03-29 14:23:00,
2013-03-29 10:28:00,52.5,50.2,30.04,East,96,2.0,11.0,92,0.01,,---,0.01,VWS V14.01,2013-03-29 14:28:00,
2013-03-29 10:33:00,52.5,50.2,30.04,East,96,2.0,11.0,92,0.01,,---,0.01,VWS V14.01,2013-03-29 14:33:00,
2013-03-29 10:38:00,52.5,50.2,30.04,East,96,2.0,11.0,92,0.01,,---,0.01,VWS V14.01,2013-03-29 14:38:00,
2013-03-29 10:43:00,52.5,50.2,30.04,East,96,2.0,11.0,92,0.01,,---,0.01,VWS V14.01,2013-03-29 14:43:00,
2013-03-29 10:48:00,52.5,50.2,30.04,East,96,2.0,11.0,92,0.01,,---,0.01,VWS V14.01,2013-03-29 14:48:00,
2013-03-29 10:53:00,52.5,50.2,30.04,East,96,2.0,11.0,92,0.01,,---,0.01,VWS V14.01,2013-03-29 14:53:00,
2013-03-29 10:58:00,52.5,50.2,30.04,East,96,2.0,11.0,92,0.01,,---,0.01,VWS V14.01,2013-03-29 14:58:00,
2013-03-29 11:00:00,56.4,29.1,30.31,NW,315,4.0,13.0,35,0.00,,---,0.00,VWS V14.01,2013-03-29 15:00:00,
2013-03-29 11:03:00,52.5,50.2,30.04,East,96,2.0,11.0,92,0.01,,---,0.01,VWS V14.01,2013-03-29 15:03:00,
2013-03-29 11:08:00,52.5,50.2,30.04,East,96,2.0,11.0,92,0.01,,---,0.01,VWS V14.01,2013-03-29 15:08:00,
2013-03-29 11:13:00,52.5,50.2,30.04,East,96,2.0,11.0,92,0.01,,---,0.01,VWS V14.01,2013-03-29 15:13:00,
2013-03-29 11:18:00,52.5,50.2,30.04,East,96,2.0,11.0,92,0.01,,---,0.01,VWS V14.01,2013-03-29 15:18:00,
2013-03-29 11:23:00,52.5,50.2,30.04,East,96,2.0,11.0,92,0.01,,---,0.01,VWS V14.01,2013-03-29 15:23:00,
2013-03-29 11:28:00,52.5,50.2,30.04,East,96,2.0,11.0,92,0.01,,---,0.01,VWS V14.01,2013-03-29 15:28:00,
2013-03-29 11:33:00,52.5,50.2,30.04,East,96,2.0,11.0,92,0.01,,---,0.01,VWS V14.01,2013-03-29 15:33:00,
2013-03-29 11:38:00,52.5,50.2,30.04,East,96,2.0,11.0,92,0.01,,---,0.01,VWS V14.01,2013-03-29 15:38:00,
2013-03-29 11:43:00,52.5,50.2,30.04,East,96,2.0,11.0,92,0.01,,---,0.01,VWS V14.01,2013-03-29 15:43:00,
2013-03-29 11:48:00,52.5,50.2,30.04,East,96,2.0,11.0,92,0.01,,---,0.01,VWS V14.01,2013-03-29 15:48:00,
2013-03-29 11:53:00,52.5,50.2,30.04,East,96,2.0,11.0,92,0.01,,---,0.01,VWS V14.01,2013-03-29 15:53:00,
2013-03-29 11:58:00,52.5,50.2,30.04,East,96,2.0,11.0,92,0.01,,---,0.01,VWS V14.01,2013-03-29 15:58:00,
2013-03-29 12:00:00,59.3,30.2,30.28,NNW,338,4.0,13.0,33,0.00,,---,0.00,VWS V14.01,2013-03-29 16:00:00,
2013-03-29 12:03:00,52.5,50.2,30.04,East,96,2.0,11.0,92,0.01,,---,0.01,VWS V14.01,2013-03-29 16:03:00,
2013-03-29 12:08:00,52.5,50.2,30.04,East,96,2.0,11.0,92,0.01,,---,0.01,VWS V14.01,2013-03-29 16:08:00,
2013-03-29 12:13:00,52.5,50.2,30.04,East,96,2.0,11.0,92,0.01,,---,0.01,VWS V14.01,2013-03-29 16:13:00,
2013-03-29 12:18:00,52.5,50.2,30.04,East,96,2.0,11.0,92,0.01,,---,0.01,VWS V14.01,2013-03-29 16:18:00,
2013-03-29 12:23:00,52.5,50.2,30.04,East,96,2.0,11.0,92,0.01,,---,0.01,VWS V14.01,2013-03-29 16:23:00,
2013-03-29 12:28:00,52.5,50.2,30.04,East,96,2.0,11.0,92,0.01,,---,0.01,VWS V14.01,2013-03-29 16:28:00,
2013-03-29 12:33:00,52.5,50.2,30.04,East,96,2.0,11.0,92,0.01,,---,0.01,VWS V14.01,2013-03-29 16:33:00,
2013-03-29 12:38:00,52.5,50.2,30.04,East,96,2.0,11.0,92,0.01,,---,0.01,VWS V14.01,2013-03-29 16:38:00,
2013-03-29 12:43:00,52.5,50.2,30.04,East,96,2.0,11.0,92,0.01,,---,0.01,VWS V14.01,2013-03-29 16:43:00,
2013-03-29 12:48:00,52.5,50.2,30.04,East,96,2.0,11.0,92,0.01,,---,0.01,VWS V14.01,2013-03-29 16:48:00,
2013-03-29 12:53:00,52.5,50.2,30.04,East,96,2.0,11.0,92,0.01,,---,0.01,VWS V14.01,2013-03-29 16:53:00,
2013-03-29 12:58:00,52.5,50.2,30.04,East,96,2.0,11.0,92,0.01,,---,0.01,VWS V14.01,2013-03-29 16:58:00,
2013-03-29 13:00:00,58.2,32.7,30.26,SSE,158,4.0,11.0,38,0.00,,---,0.00,VWS V14.01,2013-03-29 17:00:00,
2013-03-29 13:03:00,52.5,50.2,30.04,East,96,2.0,11.0,92,0.01,,---,0.01,VWS V14.01,2013-03-29 17:03:00,
2013-03-29 13:08:00,52.5,50.2,30.04,East,96,2.0,11.0,92,0.01,,---,0.01,VWS V14.01,2013-03-29 17:08:00,
2013-03-29 13:13:00,52.5,50.2,30.04,East,96,2.0,11.0,92,0.01,,---,0.01,VWS V14.01,2013-03-29 17:13:00,
2013-03-29 13:18:00,52.5,50.2,30.04,East,96,2.0,11.0,92,0.01,,---,0.01,VWS V14.01,2013-03-29 17:18:00,
2013-03-29 13:23:00,52.5,50.2,30.04,East,96,2.0,11.0,92,0.01,,---,0.01,VWS V14.01,2013-03-29 17:23:00,
2013-03-29 13:28:00,52.5,50.2,30.04,East,96,2.0,11.0,92,0.01,,---,0.01,VWS V14.01,2013-03-29 17:28:00,
2013-03-29 13:33:00,52.5,50.2,30.04,East,96,2.0,11.0,92,0.01,,---,0.01,VWS V14.01,2013-03-29 17:33:00,
2013-03-29 13:38:00,52.5,50.2,30.04,East,96,2.0,11.0,92,0.01,,---,0.01,VWS V14.01,2013-03-29 17:38:00,
2013-03-29 13:43:00,52.5,50.2,30.04,East,96,2.0,11.0,92,0.01,,---,0.01,VWS V14.01,2013-03-29 17:43:00,
2013-03-29 13:48:00,52.5,50.2,30.04,East,96,2.0,11.0,92,0.01,,---,0.01,VWS V14.01,2013-03-29 17:48:00,
2013-03-29 13:53:00,52.5,50.2,30.04,East,96,2.0,11.0,92,0.01,,---,0.01,VWS V14.01,2013-03-29 17:53:00,
2013-03-29 13:58:00,52.5,50.2,30.04,East,96,2.0,11.0,92,0.01,,---,0.01,VWS V14.01,2013-03-29 17:58:00,
2013-03-29 14:00:00,58.2,34.0,30.23,South,180,6.0,15.0,40,0.00,,---,0.00,VWS V14.01,2013-03-29 18:00:00,
2013-03-29 14:03:00,52.5,50.2,30.04,East,96,2.0,11.0,92,0.01,,---,0.01,VWS V14.01,2013-03-29 18:03:00,
2013-03-29 14:08:00,52.5,50.2,30.04,East,96,2.0,11.0,92,0.01,,---,0.01,VWS V14.01,2013-03-29 18:08:00,
2013-03-29 14:13:00,52.5,50.2,30.04,East,96,2.0,11.0,92,0.01,,---,0.01,VWS V14.01,2013-03-29 18:13:00,
2013-03-29 14:18:00,52.5,50.2,30.04,East,96,2.0,11.0,92,0.01,,---,0.01,VWS V14.01,2013-03-29 18:18:00,
2013-03-29 14:23:00,52.5,50.2,30.04,East,96,2.0,11.0,92,0.01,,---,0.01,VWS V14.01,2013-03-29 18:23:00,
2013-03-29 14:28:00,52.5,50.2,30.04,East,96,2.0,11.0,92,0.01,,---,0.01,VWS V14.01,2013-03-29 18:28:00,
2013-03-29 14:33:00,52.5,50.2,30.04,East,96,2.0,11.0,92,0.01,,---,0.01,VWS V14.01,2013-03-29 18:33:00,
2013-03-29 14:38:00,52.5,50.2,30.04,East,96,2.0,11.0,92,0.01,,---,0.01,VWS V14.01,2013-03-29 18:38:00,
2013-03-29 14:43:00,52.5,50.2,30.04,East,96,2.0,11.0,92,0.01,,---,0.01,VWS V14.01,2013-03-29 18:43:00,
2013-03-29 14:48:00,52.5,50.2,30.04,East,96,2.0,11.0,92,0.01,,---,0.01,VWS V14.01,2013-03-29 18:48:00,
2013-03-29 14:53:00,52.5,50.2,30.04,East,96,2.0,11.0,92,0.01,,---,0.01,VWS V14.01,2013-03-29 18:53:00,
2013-03-29 14:58:00,52.5,50.2,30.04,East,96,2.0,11.0,92,0.01,,---,0.01,VWS V14.01,2013-03-29 18:58:00,
2013-03-29 15:00:00,57.9,36.1,30.21,South,180,6.0,17.0,44,0.00,,---,0.00,VWS V14.01,2013-03-29 19:00:00,
2013-03-29 15:03:00,52.5,50.2,30.04,East,96,2.0,11.0,92,0.01,,---,0.01,VWS V14.01,2013-03-29 19:03:00,
2013-03-29 15:08:00,52.5,50.2,30.04,East,96,2.0,11.0,92,0.01,,---,0.01,VWS V14.01,2013-03-29 19:08:00,
2013-03-29 15:13:00,52.5,50.2,30.04,East,96,2.0,11.0,92,0.01,,---,0.01,VWS V14.01,2013-03-29 19:13:00,
2013-03-29 15:18:00,52.5,50.2,30.04,East,96,2.0,11.0,92,0.01,,---,0.01,VWS V14.01,2013-03-29 19:18:00,
2013-03-29 15:23:00,52.5,50.2,30.04,East,96,2.0,11.0,92,0.01,,---,0.01,VWS V14.01,2013-03-29 19:23:00,
2013-03-29 15:28:00,52.5,50.2,30.04,East,96,2.0,11.0,92,0.01,,---,0.01,VWS V14.01,2013-03-29 19:28:00,
2013-03-29 15:33:00,52.5,50.2,30.04,East,96,2.0,11.0,92,0.01,,---,0.01,VWS V14.01,2013-03-29 19:33:00,
2013-03-29 15:38:00,52.5,50.2,30.04,East,96,2.0,11.0,92,0.01,,---,0.01,VWS V14.01,2013-03-29 19:38:00,
2013-03-29 15:43:00,52.5,50.2,30.04,East,96,2.0,11.0,92,0.01,,---,0.01,VWS V14.01,2013-03-29 19:43:00,
2013-03-29 15:48:00,52.5,50.2,30.04,East,96,2.0,11.0,92,0.01,,---,0.01,VWS V14.01,2013-03-29 19:48:00,
2013-03-29 15:53:00,52.5,50.2,30.04,East,96,2.0,11.0,92,0.01,,---,0.01,VWS V14.01,2013-03-29 19:53:00,
2013-03-29 15:58:00,52.5,50.2,30.04,East,96,2.0,11.0,92,0.01,,---,0.01,VWS V14.01,2013-03-29 19:58:00,
2013-03-29 16:00:00,58.6,35.6,30.20,South,180,6.0,15.0,42,0.00,,---,0.00,VWS V14.01,2013-03-29 20:00:00,
2013-03-29 16:03:00,52.5,50.2,30.04,East,96,2.0,11.0,92,0.01,,---,0.01,VWS V14.01,2013-03-29 20:03:00,
2013-03-29 16:08:00,52.5,50.2,30.04,East,96,2.0,11.0,92,0.01,,---,0.01,VWS V14.01,2013-03-29 20:08:00,
2013-03-29 16:13:00,52.5,50.2,30.04,East,96,2.0,11.0,92,0.01,,---,0.01,VWS V14.01,2013-03-29 20:13:00,
2013-03-29 16:18:00,52.5,50.2,30.04,East,96,2.0,11.0,92,0.01,,---,0.01,VWS V14.01,2013-03-29 20:18:00,
2013-03-29 16:23:00,52.5,50.2,30.04,East,96,2.0,11.0,92,0.01,,---,0.01,VWS V14.01,2013-03-29 20:23:00,
2013-03-29 16:28:00,52.5,50.2,30.04,East,96,2.0,11.0,92,0.01,,---,0.01,VWS V14.01,2013-03-29 20:28:00,
2013-03-29 16:33:00,52.5,50.2,30.04,East,96,2.0,11.0,92,0.01,,---,0.01,VWS V14.01,2013-03-29 20:33:00,
2013-03-29 16:38:00,52.5,50.2,30.04,East,96,2.0,11.0,92,0.01,,---,0.01,VWS V14.01,2013-03-29 20:38:00,
2013-03-29 16:43:00,52.5,50.2,30.04,East,96,2.0,11.0,92,0.01,,---,0.01,VWS V14.01,2013-03-29 20:43:00,
2013-03-29 16:48:00,52.5,50.2,30.04,East,96,2.0,11.0,92,0.01,,---,0.01,VWS V14.01,2013-03-29 20:48:00,
2013-03-29 16:53:00,52.5,50.2,30.04,East,96,2.0,11.0,92,0.01,,---,0.01,VWS V14.01,2013-03-29 20:53:00,
2013-03-29 16:58:00,52.5,50.2,30.04,East,96,2.0,11.0,92,0.01,,---,0.01,VWS V14.01,2013-03-29 20:58:00,
2013-03-29 17:00:00,57.4,37.9,30.20,South,180,6.0,14.0,48,0.00,,---,0.00,VWS V14.01,2013-03-29 21:00:00,
2013-03-29 17:03:00,52.5,50.2,30.04,East,96,2.0,11.0,92,0.01,,---,0.01,VWS V14.01,2013-03-29 21:03:00,
2013-03-29 17:08:00,52.5,50.2,30.04,East,96,2.0,11.0,92,0.01,,---,0.01,VWS V14.01,2013-03-29 21:08:00,
2013-03-29 17:13:00,52.5,50.2,30.04,East,96,2.0,11.0,92,0.01,,---,0.01,VWS V14.01,2013-03-29 21:13:00,
2013-03-29 17:18:00,52.5,50.2,30.04,East,96,2.0,11.0,92,0.01,,---,0.01,VWS V14.01,2013-03-29 21:18:00,
2013-03-29 17:23:00,52.5,50.2,30.04,East,96,2.0,11.0,92,0.01,,---,0.01,VWS V14.01,2013-03-29 21:23:00,
2013-03-29 17:28:00,52.5,50.2,30.04,East,96,2.0,11.0,92,0.01,,---,0.01,VWS V14.01,2013-03-29 21:28:00,
2013-03-29 17:33:00,52.5,50.2,30.04,East,96,2.0,11.0,92,0.01,,---,0.01,VWS V14.01,2013-03-29 21:33:00,
2013-03-29 17:38:00,52.5,50.2,30.04,East,96,2.0,11.0,92,0.01,,---,0.01,VWS V14.01,2013-03-29 21:38:00,
2013-03-29 17:43:00,52.5,50.2,30.04,East,96,2.0,11.0,92,0.01,,---,0.01,VWS V14.01,2013-03-29 21:43:00,
2013-03-29 17:48:00,52.5,50.2,30.04,East,96,2.0,11.0,92,0.01,,---,0.01,VWS V14.01,2013-03-29 21:48:00,
2013-03-29 17:53:00,52.5,50.2,30.04,East,96,2.0,11.0,92,0.01,,---,0.01,VWS V14.01,2013-03-29 21:53:00,
2013-03-29 17:58:00,52.5,50.2,30.04,East,96,2.0,11.0,92,0.01,,---,0.01,VWS V14.01,2013-03-29 21:58:00,
2013-03-29 18:00:00,55.3,39.0,30.20,South,180,4.0,14.0,54,0.00,,---,0.00,VWS V14.01,2013-03-29 22:00:00,
2013-03-29 18:03:00,52.5,50.2,30.04,East,96,2.0,11.0,92,0.01,,---,0.01,VWS V14.01,2013-03-29 22:03:00,
2013-03-29 18:08:00,52.5,50.2,30.04,East,96,2.0,11.0,92,0.01,,---,0.01,VWS V14.01,2013-03-29 22:08:00,
2013-03-29 18:13:00,52.5,50.2,30.04,East,96,2.0,11.0,92,0.01,,---,0.01,VWS V14.01,2013-03-29 22:13:00,
2013-03-29 18:18:00,52.5,50.2,30.04,East,96,2.0,11.0,92,0.01,,---,0.01,VWS V14.01,2013-03-29 22:18:00,
2013-03-29 18:23:00,52.5,50.2,30.04,East,96,2.0,11.0,92,0.01,,---,0.01,VWS V14.01,2013-03-29 22:23:00,
2013-03-29 18:28:00,52.5,50.2,30.04,East,96,2.0,11.0,92,0.01,,---,0.01,VWS V14.01,2013-03-29 22:28:00,
2013-03-29 18:33:00,52.5,50.2,30.04,East,96,2.0,11.0,92,0.01,,---,0.01,VWS V14.01,2013-03-29 22:33:00,
2013-03-29 18:38:00,52.5,50.2,30.04,East,96,2.0,11.0,92,0.01,,---,0.01,VWS V14.01,2013-03-29 22:38:00,
2013-03-29 18:43:00,52.5,50.2,30.04,East,96,2.0,11.0,92,0.01,,---,0.01,VWS V14.01,2013-03-29 22:43:00,
2013-03-29 18:48:00,52.5,50.2,30.04,East,96,2.0,11.0,92,0.01,,---,0.01,VWS V14.01,2013-03-29 22:48:00,
2013-03-29 18:53:00,52.5,50.2,30.04,East,96,2.0,11.0,92,0.01,,---,0.01,VWS V14.01,2013-03-29 22:53:00,
2013-03-29 18:58:00,52.5,50.2,30.04,East,96,2.0,11.0,92,0.01,,---,0.01,VWS V14.01,2013-03-29 22:58:00,
2013-03-29 19:00:00,53.9,39.5,30.21,South,180,2.0,9.0,58,0.00,,---,0.00,VWS V14.01,2013-03-29 23:00:00,
2013-03-29 19:03:00,52.5,50.2,30.04,East,96,2.0,11.0,92,0.01,,---,0.01,VWS V14.01,2013-03-29 23:03:00,
2013-03-29 19:08:00,52.5,50.2,30.04,East,96,2.0,11.0,92,0.01,,---,0.01,VWS V14.01,2013-03-29 23:08:00,
2013-03-29 19:13:00,52.5,50.2,30.04,East,96,2.0,11.0,92,0.01,,---,0.01,VWS V14.01,2013-03-29 23:13:00,
2013-03-29 19:18:00,52.5,50.2,30.04,East,96,2.0,11.0,92,0.01,,---,0.01,VWS V14.01,2013-03-29 23:18:00,
2013-03-29 19:23:00,52.5,50.2,30.04,East,96,2.0,11.0,92,0.01,,---,0.01,VWS V14.01,2013-03-29 23:23:00,
2013-03-29 19:28:00,52.5,50.2,30.04,East,96,2.0,11.0,92,0.01,,---,0.01,VWS V14.01,2013-03-29 23:28:00,
2013-03-29 19:33:00,52.5,50.2,30.04,East,96,2.0,11.0,92,0.01,,---,0.01,VWS V14.01,2013-03-29 23:33:00,
2013-03-29 19:38:00,52.5,50.2,30.04,East,96,2.0,11.0,92,0.01,,---,0.01,VWS V14.01,2013-03-29 23:38:00,
2013-03-29 19:43:00,52.5,50.2,30.04,East,96,2.0,11.0,92,0.01,,---,0.01,VWS V14.01,2013-03-29 23:43:00,
2013-03-29 19:48:00,52.5,50.2,30.04,East,96,2.0,11.0,92,0.01,,---,0.01,VWS V14.01,2013-03-29 23:48:00,
2013-03-29 19:53:00,52.5,50.2,30.04,East,96,2.0,11.0,92,0.01,,---,0.01,VWS V14.01,2013-03-29 23:53:00,
2013-03-29 19:58:00,52.5,50.2,30.04,East,96,2.0,11.0,92,0.01,,---,0.01,VWS V14.01,2013-03-29 23:58:00,
2013-03-29 20:00:00,53.5,40.8,30.22,SSW,202,2.0,6.0,62,0.00,,---,0.00,VWS V14.01,2013-03-30 00:00:00,
2013-03-29 20:03:00,52.5,50.2,30.04,East,96,2.0,11.0,92,0.01,,---,0.01,VWS V14.01,2013-03-30 00:03:00,
2013-03-29 20:08:00,52.5,50.2,30.04,East,96,2.0,11.0,92,0.01,,---,0.01,VWS V14.01,2013-03-30 00:08:00,
2013-03-29 20:13:00,52.5,50.2,30.04,East,96,2.0,11.0,92,0.01,,---,0.01,VWS V14.01,2013-03-30 00:13:00,
2013-03-29 20:18:00,52.5,50.2,30.04,East,96,2.0,11.0,92,0.01,,---,0.01,VWS V14.01,2013-03-30 00:18:00,
2013-03-29 20:23:00,52.5,50.2,30.04,East,96,2.0,11.0,92,0.01,,---,0.01,VWS V14.01,2013-03-30 00:23:00,
2013-03-29 20:28:00,52.5,50.2,30.04,East,96,2.0,11.0,92,0.01,,---,0.01,VWS V14.01,2013-03-30 00:28:00,
2013-03-29 20:33:00,52.5,50.2,30.04,East,96,2.0,11.0,92,0.01,,---,0.01,VWS V14.01,2013-03-30 00:33:00,
2013-03-29 20:38:00,52.5,50.2,30.04,East,96,2.0,11.0,92,0.01,,---,0.01,VWS V14.01,2013-03-30 00:38:00,
2013-03-29 20:43:00,52.5,50.2,30.04,East,96,2.0,11.0,92,0.01,,---,0.01,VWS V14.01,2013-03-30 00:43:00,
2013-03-29 20:48:00,52.5,50.2,30.04,East,96,2.0,11.0,92,0.01,,---,0.01,VWS V14.01,2013-03-30 00:48:00,
2013-03-29 20:53:00,52.5,50.2,30.04,East,96,2.0,11.0,92,0.01,,---,0.01,VWS V14.01,2013-03-30 00:53:00,
2013-03-29 20:58:00,52.5,50.2,30.04,East,96,2.0,11.0,92,0.01,,---,0.01,VWS V14.01,2013-03-30 00:58:00,
2013-03-29 21:00:00,53.2,39.7,30.23,South,180,2.0,9.0,60,0.00,,---,0.00,VWS V14.01,2013-03-30 01:00:00,
2013-03-29 21:03:00,52.5,50.2,30.04,East,96,2.0,11.0,92,0.01,,---,0.01,VWS V14.01,2013-03-30 01:03:00,
2013-03-29 21:08:00,52.5,50.2,30.04,East,96,2.0,11.0,92,0.01,,---,0.01,VWS V14.01,2013-03-30 01:08:00,
2013-03-29 21:13:00,52.5,50.2,30.04,East,96,2.0,11.0,92,0.01,,---,0.01,VWS V14.01,2013-03-30 01:13:00,
2013-03-29 21:18:00,52.5,50.2,30.04,East,96,2.0,11.0,92,0.01,,---,0.01,VWS V14.01,2013-03-30 01:18:00,
2013-03-29 21:23:00,52.5,50.2,30.04,East,96,2.0,11.0,92,0.01,,---,0.01,VWS V14.01,2013-03-30 01:23:00,
2013-03-29 21:28:00,52.5,50.2,30.04,East,96,2.0,11.0,92,0.01,,---,0.01,VWS V14.01,2013-03-30 01:28:00,
2013-03-29 21:33:00,52.5,50.2,30.04,East,96,2.0,11.0,92,0.01,,---,0.01,VWS V14.01,2013-03-30 01:33:00,
2013-03-29 21:38:00,52.5,50.2,30.04,East,96,2.0,11.0,92,0.01,,---,0.01,VWS V14.01,2013-03-30 01:38:00,
2013-03-29 21:44:00,52.5,50.2,30.04,East,96,2.0,11.0,92,0.01,,---,0.01,VWS V14.01,2013-03-30 01:44:00,
2013-03-29 21:49:00,52.5,50.2,30.04,East,96,2.0,11.0,92,0.01,,---,0.01,VWS V14.01,2013-03-30 01:49:00,
2013-03-29 21:54:00,52.5,50.2,30.04,East,96,2.0,11.0,92,0.01,,---,0.01,VWS V14.01,2013-03-30 01:54:00,
2013-03-29 21:58:00,52.5,50.2,30.04,East,96,2.0,11.0,92,0.01,,---,0.01,VWS V14.01,2013-03-30 01:58:00,
2013-03-29 22:00:00,52.3,39.7,30.23,SSW,202,1.0,4.0,62,0.00,,---,0.00,VWS V14.01,2013-03-30 02:00:00,
2013-03-29 22:04:00,52.5,50.2,30.04,East,96,2.0,11.0,92,0.01,,---,0.01,VWS V14.01,2013-03-30 02:04:00,
2013-03-29 22:09:00,52.5,50.2,30.04,East,96,2.0,11.0,92,0.01,,---,0.01,VWS V14.01,2013-03-30 02:09:00,
2013-03-29 22:14:00,52.5,50.2,30.04,East,96,2.0,11.0,92,0.01,,---,0.01,VWS V14.01,2013-03-30 02:14:00,
2013-03-29 22:19:00,52.5,50.2,30.04,East,96,2.0,11.0,92,0.01,,---,0.01,VWS V14.01,2013-03-30 02:19:00,
2013-03-29 22:24:00,52.5,50.2,30.04,East,96,2.0,11.0,92,0.01,,---,0.01,VWS V14.01,2013-03-30 02:24:00,
2013-03-29 22:29:00,52.5,50.2,30.04,East,96,2.0,11.0,92,0.01,,---,0.01,VWS V14.01,2013-03-30 02:29:00,
2013-03-29 22:34:00,52.5,50.2,30.04,East,96,2.0,11.0,92,0.01,,---,0.01,VWS V14.01,2013-03-30 02:34:00,
2013-03-29 22:39:00,52.5,50.2,30.04,East,96,2.0,11.0,92,0.01,,---,0.01,VWS V14.01,2013-03-30 02:39:00,
2013-03-29 22:44:00,52.5,50.2,30.04,East,96,2.0,11.0,92,0.01,,---,0.01,VWS V14.01,2013-03-30 02:44:00,
2013-03-29 22:49:00,52.5,50.2,30.04,East,96,2.0,11.0,92,0.01,,---,0.01,VWS V14.01,2013-03-30 02:49:00,
2013-03-29 22:54:00,52.5,50.2,30.04,East,96,2.0,11.0,92,0.01,,---,0.01,VWS V14.01,2013-03-30 02:54:00,
2013-03-29 22:59:00,52.5,50.2,30.04,East,96,2.0,11.0,92,0.01,,---,0.01,VWS V14.01,2013-03-30 02:59:00,
2013-03-29 23:00:00,52.1,40.7,30.23,SSW,202,1.0,4.0,65,0.00,,---,0.00,VWS V14.01,2013-03-30 03:00:00,
2013-03-29 23:04:00,52.5,50.2,30.04,East,96,2.0,11.0,92,0.01,,---,0.01,VWS V14.01,2013-03-30 03:04:00,
2013-03-29 23:09:00,52.5,50.2,30.04,East,96,2.0,11.0,92,0.01,,---,0.01,VWS V14.01,2013-03-30 03:09:00,
2013-03-29 23:14:00,52.5,50.2,30.04,East,96,2.0,11.0,92,0.01,,---,0.01,VWS V14.01,2013-03-30 03:14:00,
2013-03-29 23:19:00,52.5,50.2,30.04,East,96,2.0,11.0,92,0.01,,---,0.01,VWS V14.01,2013-03-30 03:19:00,
2013-03-29 23:24:00,52.5,50.2,30.04,East,96,2.0,11.0,92,0.01,,---,0.01,VWS V14.01,2013-03-30 03:24:00,
2013-03-29 23:29:00,52.5,50.2,30.04,East,96,2.0,11.0,92,0.01,,---,0.01,VWS V14.01,2013-03-30 03:29:00,
2013-03-29 23:34:00,52.5,50.2,30.04,East,96,2.0,11.0,92,0.01,,---,0.01,VWS V14.01,2013-03-30 03:34:00,
2013-03-29 23:39:00,52.5,50.2,30.04,East,96,2.0,11.0,92,0.01,,---,0.01,VWS V14.01,2013-03-30 03:39:00,
2013-03-29 23:44:00,52.5,50.2,30.04,East,96,2.0,11.0,92,0.01,,---,0.01,VWS V14.01,2013-03-30 03:44:00,
2013-03-29 23:49:00,52.5,50.2,30.04,East,96,2.0,11.0,92,0.01,,---,0.01,VWS V14.01,2013-03-30 03:49:00,
2013-03-29 23:54:00,52.5,50.2,30.04,East,96,2.0,11.0,92,0.01,,---,0.01,VWS V14.01,2013-03-30 03:54:00,
2013-03-29 23:59:00,52.5,50.2,30.04,East,96,2.0,11.0,92,0.01,,---,0.01,VWS V14.01,2013-03-30 03:59:00,